Theta_e
299 293 292 295 298 298 298 299 301 306 315 317 316 318 326 329 329 328 329 330 330 332 337 339 339 341 341 341 340 338 339 341 344 342 341 338 339 341 343 341 347 346 349 352
296 293 298 299 299 298 297 295 297 304 311 316 316 316 325 329 328 329 329 330 332 332 334 336 338 339 339 338 341 339 339 341 344 345 344 340 339 340 342 341 343 347 348 351
296 299 302 300 297 297 296 296 297 300 307 313 312 312 319 326 330 331 332 333 333 332 332 334 336 338 338 337 339 340 339 340 344 345 342 342 341 340 340 339 338 347 350 352
299 305 302 299 298 299 293 302 302 302 301 297 313 300 313 319 323 324 329 332 333 334 334 335 336 336 338 338 341 341 340 340 343 343 342 341 338 337 337 338 338 345 350 351
297 301 300 299 300 303 299 304 302 302 298 297 304 304 307 317 317 320 323 329 332 334 336 336 336 337 339 340 340 342 341 341 342 343 342 341 337 336 338 337 337 338 348 350
297 303 304 303 306 306 307 302 300 298 296 291 298 300 296 311 315 319 323 325 329 332 335 336 339 339 338 341 340 341 341 341 342 343 343 341 340 337 336 337 335 335 341 348
295 298 302 305 302 306 305 296 288 287 288 291 297 297 301 314 320 321 322 324 327 331 332 333 336 337 338 339 339 340 340 341 343 344 344 342 341 339 339 337 339 335 336 341
285 289 299 303 302 300 301 296 289 283 285 289 296 292 298 312 322 324 325 326 327 329 331 329 333 338 339 339 339 339 340 341 343 343 344 344 343 341 341 340 336 337 338 343
286 288 297 300 304 305 301 298 300 290 286 289 295 294 301 308 315 321 323 324 325 328 330 326 331 335 339 339 339 338 340 342 343 344 345 344 344 343 341 340 340 338 339 344
290 284 293 298 303 304 304 302 294 290 285 283 287 290 296 301 307 315 319 322 324 327 329 329 329 334 337 339 339 340 340 341 343 344 345 345 344 344 344 341 338 338 338 342
291 289 289 296 295 297 298 299 296 297 291 290 283 290 297 301 306 312 317 322 324 326 328 328 330 334 336 338 339 340 339 340 342 344 345 344 345 345 344 342 342 342 341 340
294 290 287 289 299 300 297 298 295 296 289 287 289 295 302 302 304 307 317 321 325 327 328 329 330 333 335 336 339 340 340 339 341 344 345 345 345 346 347 346 342 341 343 343
293 289 282 288 291 295 293 300 302 297 291 289 293 294 301 301 303 303 305 310 323 327 328 328 330 332 334 335 338 339 341 341 341 342 345 345 344 344 343 348 350 345 342 342
296 289 284 282 286 289 288 291 294 296 295 290 294 294 299 302 302 303 305 307 314 326 327 328 330 333 334 335 336 339 341 343 343 343 343 345 346 346 345 344 344 349 350 345
292 285 286 287 288 289 289 290 292 291 295 295 297 293 298 300 302 304 310 309 310 321 326 329 331 333 334 335 335 338 341 343 344 343 343 344 346 348 349 348 346 345 346 350
291 285 287 284 288 289 288 292 295 296 298 295 294 296 300 300 308 312 310 309 313 323 328 331 333 333 333 334 335 336 339 342 344 344 344 345 345 347 349 350 349 348 346 346
288 287 283 279 290 293 292 295 297 300 299 298 294 297 302 312 317 317 317 313 315 325 328 331 333 333 334 335 335 335 337 341 344 344 346 346 347 346 348 350 351 351 349 348
288 287 284 278 286 288 294 300 300 298 298 299 301 304 314 317 317 317 321 321 322 322 329 332 334 334 335 336 336 336 338 339 342 344 345 347 348 349 349 350 351 352 353 351
292 289 281 280 286 294 296 296 295 294 294 299 301 309 317 320 320 315 317 323 324 328 330 326 331 333 333 335 336 335 336 337 341 343 345 347 349 349 351 351 351 353 353 354
291 290 286 285 287 287 293 297 302 302 290 300 300 302 307 313 306 307 312 320 321 327 332 337 335 332 330 331 336 335 335 335 336 342 345 348 350 350 350 352 353 353 355 354
286 286 285 285 287 292 297 298 303 289 290 298 299 299 303 302 304 306 309 309 315 320 324 338 342 345 343 332 336 334 335 335 337 338 340 344 350 351 352 353 354 355 354 355
286 285 286 289 287 287 299 300 292 294 297 298 298 298 299 303 306 306 307 307 309 311 318 324 329 334 342 348 338 336 337 336 342 341 340 342 343 348 352 352 353 354 354 353
285 288 287 285 289 297 299 301 300 299 297 297 297 299 299 301 304 305 305 306 307 308 311 319 320 322 329 339 346 345 345 347 344 343 343 344 346 346 347 349 350 352 352 351
291 294 288 288 294 292 295 299 300 301 300 300 301 300 300 300 304 303 305 305 306 306 308 311 320 319 321 326 336 343 346 345 343 343 345 343 345 346 349 350 350 350 351 351
290 291 288 289 292 295 298 300 301 301 303 303 303 303 302 300 302 303 304 304 305 305 306 309 311 319 318 321 324 333 343 343 341 340 342 343 345 342 344 342 337 349 352 345
293 291 288 288 295 294 295 299 302 301 301 302 302 302 303 302 304 303 303 304 305 305 307 310 311 317 319 319 321 325 335 339 339 338 338 339 342 345 343 334 323 304 303 302
Wind_Speed
7 5 20 32 16 5 4 4 6 4 8 7 15 7 18 20 16 20 19 19 21 22 19 17 16 17 16 16 14 15 14 12 9 4 5 3 4 2 1 3 6 6 5 6
5 18 18 5 8 10 7 5 6 5 6 9 11 14 16 19 22 22 20 19 22 21 21 20 18 18 17 17 19 15 16 15 11 9 8 4 4 3 3 3 4 6 6 6
10 8 16 10 11 13 14 16 10 8 3 10 8 6 8 13 11 13 18 19 18 22 23 23 21 22 18 16 18 18 18 17 14 14 4 2 3 2 3 2 2 4 6 6
14 21 12 16 17 16 14 16 13 14 5 5 8 6 9 13 18 17 20 21 20 22 20 19 21 22 22 18 17 18 17 16 15 13 11 11 8 8 5 4 3 4 6 6
15 14 17 17 23 19 14 8 10 10 3 5 7 5 8 17 19 22 22 22 22 23 22 24 25 24 24 20 17 17 18 17 17 13 14 10 6 4 2 3 5 4 5 6
11 10 13 25 13 13 5 5 4 1 4 10 13 10 6 13 26 25 23 23 21 21 23 24 23 20 20 21 18 18 18 18 17 15 15 14 13 7 5 4 4 4 4 5
11 16 17 8 16 9 12 9 3 4 7 12 7 11 14 18 25 29 31 29 26 24 22 21 24 24 21 23 20 19 19 19 18 17 16 14 13 11 10 7 7 6 4 3
5 9 12 8 14 12 12 12 8 10 5 6 7 8 8 16 24 28 28 26 16 17 18 19 23 24 23 23 22 22 21 21 19 18 18 15 13 9 9 10 5 5 6 7
5 10 14 20 15 17 11 19 11 5 3 2 6 5 6 7 14 14 21 15 21 22 21 21 19 20 23 23 24 23 22 22 21 20 17 16 13 13 11 10 10 7 6 6
4 9 7 14 10 17 20 10 8 5 9 8 5 6 8 11 15 13 16 20 20 22 20 19 19 21 20 20 22 23 22 24 22 20 17 15 16 14 11 9 10 9 8 8
2 3 10 11 7 24 12 11 5 6 5 11 1 8 8 12 16 14 16 20 23 23 23 21 20 22 19 19 20 22 21 21 19 18 17 16 14 13 12 10 10 10 8 9
2 1 8 12 18 17 12 11 8 12 12 3 4 15 5 10 13 14 16 17 20 24 24 21 22 23 22 20 20 21 21 20 20 19 17 17 14 13 13 12 11 10 12 7
1 1 8 8 2 2 5 13 16 9 4 11 15 10 3 5 5 10 11 11 15 20 23 21 19 22 23 21 20 20 20 20 19 17 17 16 15 14 15 15 13 11 11 9
5 3 7 8 7 9 12 18 10 11 14 6 19 5 10 12 9 8 10 12 17 22 24 21 21 23 21 22 19 19 19 19 19 18 17 16 16 16 15 14 13 14 12 11
2 6 10 16 26 20 20 22 22 12 10 18 13 10 13 11 9 8 9 12 17 25 23 22 23 22 21 19 18 18 18 18 18 17 17 18 16 16 15 15 15 14 13 14
5 4 4 17 24 21 20 18 17 19 14 7 6 14 8 2 3 8 10 10 14 20 22 24 24 24 22 21 21 18 17 18 18 18 19 18 17 16 16 16 14 14 14 14
6 3 2 9 5 4 6 7 13 4 15 4 8 4 12 5 11 12 13 7 14 19 21 24 24 23 22 21 21 20 20 17 19 18 17 16 15 15 16 15 14 14 14 13
5 4 3 8 7 8 10 10 8 22 20 18 12 10 2 12 9 16 17 12 10 5 16 21 19 19 20 18 18 15 14 16 16 17 17 15 15 16 14 14 14 13 12 13
11 3 4 4 4 5 1 8 10 5 19 21 19 15 2 13 16 16 20 15 11 11 9 5 5 8 9 12 12 13 13 14 14 16 17 16 16 16 14 15 15 14 13 12
12 9 4 4 1 5 3 18 19 11 12 22 21 19 15 7 10 5 16 16 16 17 13 11 10 10 10 5 15 15 14 14 16 17 17 14 15 16 16 16 15 14 12 13
5 5 7 8 5 3 8 21 13 9 1 14 16 17 15 13 4 4 10 16 15 14 16 13 16 13 6 3 13 15 14 17 12 8 8 11 15 15 14 13 12 11 12 11
3 2 0 4 2 2 14 10 10 4 2 6 11 15 15 8 8 8 12 14 16 17 17 16 15 14 11 11 11 9 6 2 7 10 13 12 12 10 10 13 11 11 11 11
4 4 4 4 3 4 6 4 6 10 6 8 11 13 14 11 7 8 8 10 11 12 12 11 11 13 12 12 9 12 4 6 6 5 4 4 7 11 12 12 12 10 11 11
7 9 3 8 7 11 12 3 8 12 10 9 8 10 11 13 9 7 7 7 8 9 11 9 11 13 12 10 10 8 7 6 6 8 6 3 5 6 6 6 8 9 9 10
5 8 7 5 7 19 1 12 13 12 13 13 12 9 10 10 11 6 5 6 6 6 7 8 9 9 8 7 9 8 7 6 6 6 5 4 1 4 5 3 2 7 7 8
5 2 1 2 7 8 14 14 13 13 12 13 13 15 10 10 10 6 5 5 4 6 5 7 7 7 7 7 8 8 8 8 6 5 4 2 2 2 3 4 3 4 2 4
Wind_Direction
191 162 201 210 206 173 182 212 196 213 191 143 197 198 189 181 188 178 191 192 199 201 194 192 190 185 185 186 183 190 189 190 176 172 182 180 184 177 200 201 167 182 185 177
140 217 217 203 190 203 231 250 258 293 182 186 195 213 195 188 200 186 191 197 202 202 198 197 193 188 183 184 193 190 194 191 188 192 200 175 166 170 161 188 186 189 185 181
196 238 189 201 199 190 211 222 235 231 109 203 172 236 173 197 207 199 207 207 206 205 203 198 196 195 190 184 189 194 194 193 194 196 148 90 85 48 137 147 206 201 186 179
223 230 197 198 216 194 215 209 221 245 144 199 165 228 210 204 214 211 209 208 203 207 211 207 206 199 193 190 188 190 191 192 193 187 194 197 202 201 199 163 171 198 185 187
220 196 223 205 211 199 228 163 200 234 194 150 234 121 253 197 221 222 218 210 204 208 207 207 205 205 199 186 188 189 189 193 193 190 197 195 199 203 152 144 162 194 199 196
235 293 206 222 216 213 169 186 192 258 139 245 212 207 256 191 220 225 226 220 207 204 207 214 208 207 201 191 185 186 187 194 194 191 196 195 193 167 157 183 179 192 205 204
329 249 257 242 208 213 197 138 230 251 206 235 209 196 218 210 214 217 218 213 211 205 205 202 202 201 198 195 185 186 186 193 193 193 196 197 195 178 182 186 200 179 186 205
13 275 230 237 215 191 207 182 166 194 188 216 201 214 235 204 218 220 226 212 201 220 210 205 202 196 196 195 188 187 187 192 192 190 198 198 195 189 191 192 184 199 195 204
348 267 317 300 255 196 197 207 192 102 349 170 221 250 298 204 238 222 228 193 199 209 208 207 206 197 195 192 191 189 189 191 191 193 196 198 195 196 196 188 198 202 197 206
39 301 284 304 298 240 208 158 186 219 189 226 270 214 206 190 229 212 219 207 201 202 206 205 203 204 195 192 191 188 192 189 191 192 194 196 197 199 196 181 189 193 202 207
163 186 287 334 227 220 210 202 198 154 190 223 234 250 204 195 206 199 219 209 206 200 202 197 198 202 192 189 187 191 192 194 192 190 193 197 198 196 194 188 197 201 194 201
90 297 277 250 278 301 297 215 169 200 215 247 194 242 250 212 197 194 213 213 208 204 203 199 197 196 193 184 186 191 193 193 194 191 191 196 194 193 197 202 197 192 206 189
270 82 304 290 262 324 255 203 209 208 112 208 223 233 234 254 256 207 197 224 213 206 207 202 190 194 192 185 185 189 190 193 193 189 193 195 196 193 196 201 198 198 204 198
133 230 220 271 304 323 300 318 328 205 218 191 233 211 262 272 259 248 248 211 215 201 203 191 185 192 192 187 183 186 190 190 190 189 192 196 200 198 200 202 203 206 201 199
253 236 247 255 265 272 272 275 285 286 220 206 235 222 228 228 239 277 276 258 228 200 191 183 183 185 189 184 184 187 189 188 188 187 190 199 197 200 202 204 204 206 204 210
220 258 281 271 252 237 247 257 256 249 246 211 198 240 220 316 14 346 305 251 209 189 182 183 184 182 182 184 188 184 186 188 185 188 197 198 196 197 201 204 203 201 206 207
214 182 262 265 308 273 219 335 291 139 41 337 208 294 311 59 54 15 339 321 217 189 184 181 183 183 184 186 184 189 188 178 187 192 198 198 196 200 204 203 203 205 206 204
216 139 236 269 296 171 150 31 340 81 49 18 352 292 146 97 91 42 11 3 22 326 192 184 185 186 189 184 188 182 177 184 185 192 195 194 195 201 199 202 206 207 206 207
203 179 269 264 314 100 92 356 341 359 43 18 3 22 3 126 66 24 4 10 24 35 38 54 145 158 165 169 168 172 176 180 182 192 197 196 197 200 193 203 205 205 206 208
193 204 270 307 208 164 269 309 302 228 47 354 355 16 5 39 71 339 340 357 19 42 40 50 73 86 97 136 155 163 172 179 191 195 196 192 195 199 199 204 205 207 207 216
171 209 220 233 254 180 324 319 308 65 320 336 357 359 10 48 66 313 342 9 17 35 39 47 61 67 48 66 165 171 172 192 196 168 174 184 199 201 201 203 205 204 207 214
63 327 282 249 93 94 347 351 74 180 1 342 355 4 357 345 15 23 21 12 14 23 28 32 52 50 36 51 88 91 94 154 170 169 182 191 189 189 194 198 200 204 202 209
62 5 286 44 277 288 14 23 74 55 19 1 350 347 352 346 19 20 12 12 7 14 26 25 39 48 37 35 50 79 52 67 88 117 133 174 189 198 199 196 198 196 201 209
7 20 6 331 10 319 313 306 40 0 347 345 343 332 340 351 340 30 28 17 8 6 19 18 33 40 39 26 35 45 35 37 63 78 85 107 186 195 197 198 202 202 204 211
11 308 308 280 321 320 119 342 342 351 338 348 343 340 334 334 335 337 10 22 19 17 8 17 20 28 24 15 28 23 20 22 31 38 29 32 90 189 191 158 207 214 214 215
329 225 13 273 311 292 282 297 319 331 329 333 331 325 330 318 313 320 343 351 5 14 13 31 25 19 14 15 11 9 7 8 3 2 4 0 346 266 199 170 187 60 349 321